Weather in Mykolaivka

Ukraine / Sumi District     50°56′28″N   34°22′43″E
temp.,
°C
wind,
m/s
gust,
m/s
humid.,
%
clouds,
%
prec.,
mm/h
press.,
hPa
HPBL,
m
21 october, thu
thu2100:00+10ssw81959100 0.0 1017665
03:00+10sw91868100 0.0 1016598
06:00+9ssw8177998 0.0 1014453
09:00+10ssw81776100 0.0 1013545
12:00+14sw9155798 0.0 1012704
15:00+16sw9155257 0.0 1010868
18:00+14ssw91759100 0.0 1009839
21:00+12ssw10196967 0.0 1007761
22 october, fri
fri2200:00+11ssw9187693 0.0 1007575
03:00+10sw81583100 0.0 1006478
06:00+10sw61373100 0.0 1006351
09:00+12wsw71465100 0.0 1008802
12:00+15w9134525 0.0 10101344
15:00+16w815435 0.0 10101832
18:00+12wsw511525 0.0 1011347
21:00+10wsw4116291 0.0 1012260
23 october, sat
sat2300:00+11wsw61354100 0.0 1013828
03:00+11wsw81369100 0.1 10121059
06:00+8sw48810 0.1 1012231
09:00+8wsw611670 0.1 1013623
12:00+11w810465 0.0 10131278
15:00+11w8124390 0.0 10132096
18:00+7w611615 0.1 1016603
21:00+5wsw49725 0.1 1017238
24 october, sun
sun2400:00+4wsw410785 0.0 1019319
03:00+3wsw4108011 0.0 1019272
06:00+6wsw51160100 0.0 1018582
09:00+6w697398 0.1 10191018
12:00+6wnw7961100 0.1 10201456
15:00+6wnw71066100 0.2 10201309
18:00+3nw7128689 0.7 1022943
21:00+3nnw71279100 0.8 1023977
25 october, mon
mon2500:00+2nnw71073100 0.0 10251143
03:00+2nnw6970100 0.0 10271165
06:000nnw6108572 0.0 1029703
09:000n598131 0.0 1032530
12:00+3n57555 0.0 1033885
15:00+5n56445 0.0 10321242
18:00+2nne35565 0.0 103480
21:000ne33620 0.0 103542